[[{"header":{"parameterUnit":"m.s-1","parameterCategory":1,"la1":30.2991,"la2":30.254,"lo1":-89.0895,"lo2":-89.0444,"dy":0.0017,"dx":0.0017,"nx":28,"ny":28,"refTime":"2025-06-13T03:00:00:Z","depth":0,"parameterNumber":2,"parameterNumberName":"U-component_of_WINDS"},"data":[0,0,0,0,0,0,0,0,0,0,0,0,0,0,0,0,0,0,0,0,0,0,0,0,0,0,0,0,0,0,0,0,0,0,0,0,0,0,0,0,0,0,0,0,0,0,0,0,0,0,0,0,0,0,0,0,0,0,1.153,1.1531,0,1.158,1.158,1.1581,1.1563,1.1562,1.1561,1.156,1.1608,1.1611,1.1613,0,0,0,0,0,0,0,0,0,0,0,0,0,1.1418,1.142,1.153,1.1531,1.1531,1.1579,1.158,1.1581,1.1563,1.1562,1.1561,1.1559,1.1608,1.161,1.1613,0,0,0,0,0,0,0,0,0,0,0,0,0,1.1467,1.1421,1.153,1.1529,1.1529,1.1579,1.158,1.1581,1.1564,1.1562,1.156,1.1559,1.1607,1.161,1.1614,1.1668,0,0,1.1624,1.1626,0,0,0,0,0,0,0,0,1.1464,1.1471,1.1528,1.1529,1.1529,1.1564,1.1558,1.161,1.1564,1.155,1.156,1.1558,1.1595,1.1599,1.1612,1.167,1.1672,1.1625,1.1627,1.1628,1.1629,0,0,0,0,0,0,0,1.1461,1.1469,1.155,1.1529,1.153,1.1524,1.153,1.1568,1.1581,1.1551,1.155,1.1556,1.1595,1.1609,1.1613,1.1673,1.1624,1.1628,1.163,1.1631,1.1776,1.1778,0,0,0,0,0,0,1.1457,1.1466,1.1548,1.1551,1.1492,1.1528,1.1534,1.1554,1.1581,1.1583,1.1558,1.1555,1.1603,1.1609,1.1615,1.1678,1.1628,1.1631,1.1633,1.1775,1.1777,1.1779,0,0,0,0,0,0,1.1455,1.1465,1.1546,1.1508,1.1518,1.1531,1.1555,1.1556,1.157,1.1586,1.1587,1.157,1.1602,1.161,1.1655,1.168,1.1633,1.1636,1.1773,1.1775,1.1778,1.1808,0,0,0,0,0,0,1.1452,1.1464,1.1486,1.1509,1.152,1.1586,1.1556,1.1558,1.1576,1.1574,1.1597,1.16,1.1602,1.1649,1.1658,1.1684,1.1639,1.177,1.1774,1.1777,1.1805,1.1811,1.1817,0,0,0,0,0,1.1448,1.1492,1.1487,1.1497,1.1548,1.1588,1.1594,1.1596,1.1578,1.1599,1.1609,1.1599,1.1676,1.1654,1.1664,1.1691,1.1769,1.1773,1.1777,1.1802,1.181,1.1817,0,0,0,0,0,0,1.1471,1.1495,1.149,1.1543,1.1563,1.1585,1.1611,1.1605,1.163,1.1627,1.1628,1.1633,1.1679,1.169,1.1665,1.1744,1.172,1.1726,1.1735,1.1743,1.1749,1.1745,1.1642,0,0,0,0,0,1.1482,1.1514,1.1533,1.1578,1.1588,1.1598,1.1616,1.1616,1.1637,1.1645,1.1658,1.1678,1.1707,1.1726,1.1753,1.1806,1.181,1.183,1.1836,1.1841,1.1846,1.1873,1.1881,1.1792,1.1792,1.1792,0,0,1.1506,1.1523,1.1543,1.1583,1.1599,1.163,1.1606,1.164,1.1663,1.165,1.1693,1.1703,1.1726,1.1775,1.1797,1.1785,1.1871,1.1846,1.185,1.1852,1.1878,1.1886,1.1894,1.1795,1.1794,1.1794,0,0,1.1565,1.1581,1.162,1.1636,1.1661,1.1667,1.1676,1.1698,1.1705,1.1748,1.1739,1.1765,1.1815,1.1831,1.1846,1.191,1.19,1.1919,1.195,1.1977,1.1984,1.199,1.2011,1.2019,1.1924,1.1924,1.1924,0,1.159,1.1638,1.164,1.1675,1.1693,1.1683,1.1721,1.1737,1.1769,1.178,1.1767,1.1828,1.1843,1.1894,1.191,1.1923,1.1932,1.1915,1.1983,1.1989,1.1995,1.2015,1.2023,1.1926,1.1925,1.1925,1.1925,0,1.1668,1.1701,1.1729,1.176,1.1781,1.1817,1.1824,1.1844,1.1842,1.1849,1.1893,1.191,1.194,1.1952,1.195,1.2003,1.1995,1.1982,1.1957,1.2005,1.2024,1.2032,1.1928,1.1928,1.1927,1.1927,0,0,1.1742,1.1774,1.1784,1.1797,1.1823,1.1848,1.1884,1.1914,1.193,1.1953,1.1981,1.2023,1.2011,1.2028,1.2028,1.2051,1.2099,1.2035,1.2036,1.2045,1.2156,1.2165,1.2174,1.2093,1.2095,1.2096,1.2154,0,1.1801,1.1864,1.1867,1.1924,1.1953,1.1944,1.1975,1.1994,1.2001,1.2026,1.2035,1.2064,1.2047,1.2056,1.2079,1.2088,1.2121,1.2084,1.2119,1.212,1.2112,1.2184,1.2193,1.2247,1.2161,1.2163,1.2163,0,1.1879,1.1904,1.1964,1.1984,1.1997,1.2025,1.2051,1.2076,1.2097,1.21,1.2119,1.2115,1.215,1.2125,1.2172,1.2147,1.2161,1.2168,1.217,1.2172,1.2144,1.2187,1.2264,1.2272,1.2175,1.2175,1.2174,0,1.1925,1.1974,1.2015,1.2027,1.2053,1.2072,1.2084,1.2103,1.212,1.2143,1.2154,1.2181,1.2195,1.2216,1.2219,1.2201,1.2266,1.2242,1.2269,1.2269,1.2282,1.2281,1.2362,1.2294,1.2294,1.2293,1.2293,0,1.1991,1.2027,1.2036,1.2062,1.2102,1.2104,1.2144,1.2153,1.217,1.2197,1.2191,1.2215,1.2219,1.2244,1.2247,1.2284,1.2291,1.2294,1.2294,1.2294,1.2294,1.2303,1.2299,1.2296,1.2295,1.2295,1.2294,0,1.2048,1.2056,1.2101,1.2121,1.2127,1.2156,1.2173,1.2196,1.2203,1.2237,1.2245,1.2255,1.2284,1.229,1.2325,1.2326,1.2371,1.2368,1.2364,1.2363,1.239,1.2387,1.2478,1.2489,1.2415,1.2416,1.2417,0,1.2089,1.2117,1.214,1.2158,1.217,1.2198,1.2216,1.2219,1.2237,1.2262,1.2283,1.2312,1.2335,1.2382,1.2392,1.2418,1.2415,1.2445,1.2418,1.2417,1.2413,1.2411,1.2413,1.2449,1.245,1.2451,1.2451,0,1.2159,1.2161,1.2187,1.2215,1.2236,1.2257,1.2277,1.2292,1.2298,1.2318,1.2348,1.2366,1.2402,1.243,1.2456,1.2466,1.2459,1.246,1.2467,1.2467,1.2463,1.2464,1.2376,1.2457,1.2457,1.2456,1.2456,1.2456,1.2208,1.2232,1.2252,1.2281,1.2297,1.2316,1.2339,1.2348,1.2374,1.2403,1.2403,1.2435,1.2454,1.2488,1.2501,1.2525,1.2516,1.2527,1.2529,1.2532,1.2533,1.246,1.253,1.253,1.253,1.253,1.253,0,1.2277,1.229,1.2316,1.2345,1.2367,1.236,1.2381,1.24,1.2429,1.2447,1.247,1.2504,1.2531,1.2543,1.257,1.2587,1.2584,1.2594,1.2592,1.2594,1.2541,1.2532,1.2595,1.2595,1.2595,1.2595,1.2595,1.2595,1.2315,1.2355,1.2359,1.2406,1.2418,1.245,1.2463,1.248,1.2494,1.2533,1.2555,1.2563,1.2579,1.2606,1.263,1.2633,1.2642,1.2653,1.2654,1.2604,1.2598,1.2591,1.2582,1.2655,1.2655,1.2704,1.2705,1.2705]},{"header":{"parameterUnit":"m.s-1","parameterCategory":1,"la1":30.2991,"la2":30.254,"lo1":-89.0895,"lo2":-89.0444,"dy":0.0017,"dx":0.0017,"nx":28,"ny":28,"refTime":"2025-06-13T03:00:00:Z","depth":0,"parameterNumber":3,"parameterNumberName":"V-component_of_WINDS"},"data":[0,0,0,0,0,0,0,0,0,0,0,0,0,0,0,0,0,0,0,0,0,0,0,0,0,0,0,0,0,0,0,0,0,0,0,0,0,0,0,0,0,0,0,0,0,0,0,0,0,0,0,0,0,0,0,0,0,0,3.6643,3.6644,0,3.6673,3.6673,3.6674,3.6617,3.6616,3.6614,3.6612,3.664,3.6642,3.6645,0,0,0,0,0,0,0,0,0,0,0,0,0,3.6534,3.6536,3.6643,3.6644,3.6644,3.6673,3.6673,3.6674,3.6618,3.6615,3.6613,3.6611,3.6639,3.6642,3.6645,0,0,0,0,0,0,0,0,0,0,0,0,0,3.6574,3.6537,3.6643,3.662,3.6618,3.6673,3.6673,3.6674,3.6618,3.6615,3.6613,3.661,3.6638,3.6642,3.6645,3.6724,0,0,3.6657,3.6658,0,0,0,0,0,0,0,0,3.6572,3.6578,3.6623,3.6621,3.6619,3.6639,3.6645,3.6691,3.6619,3.6618,3.6612,3.6609,3.6641,3.6645,3.6656,3.6725,3.6726,3.6657,3.6659,3.6661,3.6662,0,0,0,0,0,0,0,3.6569,3.6577,3.6655,3.6623,3.6621,3.6606,3.6609,3.6653,3.6645,3.6618,3.6614,3.6618,3.664,3.6653,3.6657,3.6727,3.6657,3.666,3.6662,3.6664,3.686,3.6863,0,0,0,0,0,0,3.657,3.6575,3.6654,3.6656,3.6588,3.661,3.6613,3.6635,3.6644,3.6643,3.6621,3.6616,3.6648,3.6652,3.6657,3.6749,3.6661,3.6664,3.6666,3.6857,3.6861,3.6864,0,0,0,0,0,0,3.6568,3.6578,3.6653,3.6614,3.6623,3.6615,3.664,3.6637,3.665,3.6646,3.6644,3.6636,3.6646,3.6652,3.6708,3.675,3.6666,3.6669,3.6854,3.6858,3.6863,3.6935,0,0,0,0,0,0,3.6565,3.6577,3.6608,3.6615,3.6625,3.6704,3.6643,3.664,3.6657,3.6651,3.666,3.6659,3.6644,3.6702,3.6711,3.6753,3.6672,3.685,3.6856,3.6861,3.6929,3.6941,3.6952,0,0,0,0,0,3.6561,3.6627,3.661,3.662,3.6664,3.6707,3.6712,3.6695,3.6661,3.6691,3.6688,3.6658,3.6744,3.6709,3.6718,3.6762,3.6847,3.6854,3.6861,3.6924,3.6939,3.6952,0,0,0,0,0,0,3.6624,3.6627,3.6609,3.6679,3.6693,3.6697,3.6735,3.6712,3.6735,3.6728,3.6704,3.6707,3.6767,3.677,3.6731,3.6838,3.679,3.6799,3.6834,3.6849,3.686,3.6858,3.6675,0,0,0,0,0,3.6646,3.6682,3.6682,3.6744,3.6752,3.6742,3.676,3.6746,3.6759,3.6765,3.6766,3.6779,3.6809,3.6829,3.6856,3.6929,3.6929,3.6963,3.6975,3.6984,3.6993,3.703,3.7045,3.6886,3.6886,3.6886,0,0,3.6691,3.6698,3.6722,3.6757,3.6766,3.6802,3.6748,3.6789,3.6815,3.677,3.6823,3.6825,3.6838,3.6902,3.6931,3.6906,3.7036,3.6993,3.7001,3.7004,3.7039,3.7054,3.7067,3.6891,3.689,3.6889,0,0,3.6793,3.6802,3.6854,3.6865,3.6879,3.6872,3.6885,3.6893,3.6892,3.6945,3.6912,3.6942,3.6994,3.7004,3.7016,3.7121,3.7094,3.713,3.7191,3.7229,3.7241,3.7252,3.7289,3.7303,3.7138,3.7139,3.7139,0,3.6848,3.6903,3.6884,3.6927,3.6943,3.6905,3.6956,3.6967,3.699,3.7001,3.6973,3.7037,3.7043,3.7109,3.7135,3.7146,3.7159,3.7129,3.7241,3.7252,3.7262,3.7297,3.7311,3.7143,3.7142,3.7142,3.7142,0,3.6969,3.7007,3.7047,3.7071,3.7091,3.7138,3.7125,3.7148,3.7131,3.7127,3.718,3.7186,3.7213,3.7227,3.7212,3.7291,3.7276,3.7245,3.7196,3.7282,3.7314,3.7327,3.7149,3.7147,3.7146,3.7145,0,0,3.7112,3.7124,3.7139,3.7149,3.7162,3.719,3.7235,3.7263,3.7282,3.7299,3.7335,3.7379,3.7351,3.7365,3.7349,3.7382,3.7464,3.7347,3.7347,3.7369,3.7551,3.7574,3.759,3.7446,3.7449,3.7451,3.755,0,3.7213,3.7291,3.7275,3.7351,3.7386,3.735,3.7388,3.74,3.7397,3.7424,3.742,3.7452,3.7412,3.742,3.7451,3.7448,3.75,3.744,3.7479,3.7481,3.7477,3.7607,3.7632,3.7726,3.7563,3.7565,3.7566,0,3.7341,3.7363,3.7444,3.7451,3.7464,3.75,3.7523,3.755,3.7562,3.7557,3.7573,3.7551,3.7594,3.7544,3.7603,3.7562,3.7577,3.7578,3.7581,3.7584,3.7529,3.7614,3.7755,3.7769,3.7586,3.7585,3.7583,0,3.7437,3.7487,3.7541,3.755,3.756,3.7586,3.759,3.76,3.7617,3.7637,3.7647,3.7672,3.7685,3.7704,3.7689,3.7654,3.775,3.7699,3.7746,3.7747,3.7768,3.7767,3.7914,3.7778,3.7778,3.7777,3.7777,0,3.7551,3.7602,3.7584,3.7618,3.7672,3.7652,3.7707,3.7707,3.7716,3.7748,3.7717,3.7747,3.7725,3.7754,3.7742,3.7792,3.7798,3.7795,3.7791,3.7797,3.7798,3.7807,3.78,3.7781,3.778,3.7779,3.7779,0,3.7668,3.7658,3.7715,3.7719,3.7721,3.7762,3.7764,3.7795,3.7789,3.783,3.7838,3.7829,3.786,3.7847,3.788,3.7872,3.7936,3.7923,3.7932,3.7929,3.7977,3.7973,3.8135,3.8155,3.8006,3.8007,3.8009,0,3.7742,3.778,3.7788,3.7808,3.7815,3.7847,3.7865,3.7846,3.7865,3.7881,3.7909,3.7938,3.796,3.8012,3.8008,3.8032,3.802,3.8075,3.8024,3.8029,3.8021,3.8019,3.8022,3.8086,3.8088,3.8089,3.809,0,3.7874,3.7867,3.7894,3.7919,3.7941,3.796,3.7975,3.7993,3.7974,3.7997,3.803,3.8047,3.8081,3.811,3.8132,3.8135,3.811,3.8106,3.8118,3.8126,3.8129,3.8128,3.7961,3.8103,3.8102,3.8101,3.81,3.8099,3.7971,3.8003,3.8014,3.8044,3.8054,3.807,3.8098,3.8096,3.8123,3.815,3.8136,3.8174,3.8183,3.821,3.8217,3.8245,3.8224,3.8241,3.8246,3.825,3.8257,3.8125,3.8249,3.8249,3.8248,3.8248,3.8248,0,3.8101,3.8106,3.8135,3.8158,3.8182,3.8156,3.8172,3.8194,3.8227,3.8239,3.8261,3.8298,3.8326,3.8323,3.8348,3.8371,3.836,3.8378,3.8377,3.8378,3.8275,3.8262,3.8387,3.8387,3.8387,3.8387,3.8387,3.8387,3.8171,3.8224,3.8218,3.8275,3.8279,3.8316,3.8327,3.8341,3.835,3.8393,3.8416,3.8414,3.842,3.8445,3.8469,3.8467,3.8478,3.8501,3.8495,3.8399,3.8385,3.8372,3.8359,3.8503,3.8503,3.8595,3.8596,3.8597]}]]